Location: Apeadero de Los Molinos-Guadarrama
(40.7091°N, 4.0689°W)
Time: 20:33:14
(UTC+00:00)

X-37B - Pass Details

Date: 04 October 2021
Orbit: 385 x 389 km, 45.0° (Epoch: 17 October)

Event Time Altitude Azimuth Distance (km) Brightness Sun altitude
Exits shadow 04:34:24 49° 155° (SSE) 507 1.1 -20.0°
Drops below altitude 10° 04:36:56 10° 126° (SE) 1,407 4.0 -19.5°
Sets 04:39:00 0° 122° (ESE) 2,260 5.2 -19.1°
